Year,Month,Day,Hour,Minute,Value (Times are PST for temperature in C)
2015,09,28,00,00,7.40
2015,09,28,00,01,7.40
2015,09,28,00,02,7.40
2015,09,28,00,03,7.40
2015,09,28,00,04,7.40
2015,09,28,00,05,7.40
2015,09,28,00,06,7.30
2015,09,28,00,07,7.30
2015,09,28,00,08,7.30
2015,09,28,00,09,7.30
2015,09,28,00,10,7.30
2015,09,28,00,11,7.40
2015,09,28,00,12,7.40
2015,09,28,00,13,7.40
2015,09,28,00,14,7.40
2015,09,28,00,15,7.40
2015,09,28,00,16,7.40
2015,09,28,00,17,7.40
2015,09,28,00,18,7.40
2015,09,28,00,19,7.40
2015,09,28,00,20,7.50
2015,09,28,00,21,7.50
2015,09,28,00,22,7.50
2015,09,28,00,23,7.40
2015,09,28,00,24,7.40
2015,09,28,00,25,7.40
2015,09,28,00,26,7.40
2015,09,28,00,27,7.40
2015,09,28,00,28,7.40
2015,09,28,00,29,7.30
2015,09,28,00,30,7.30
2015,09,28,00,31,7.30
2015,09,28,00,32,7.30
2015,09,28,00,33,7.30
2015,09,28,00,34,7.40
2015,09,28,00,35,7.40
2015,09,28,00,36,7.40
2015,09,28,00,37,7.40
2015,09,28,00,38,7.40
2015,09,28,00,39,7.40
2015,09,28,00,40,7.40
2015,09,28,00,41,7.50
2015,09,28,00,42,7.50
2015,09,28,00,43,7.50
2015,09,28,00,44,7.50
2015,09,28,00,45,7.50
2015,09,28,00,46,7.50
2015,09,28,00,47,7.50
2015,09,28,00,48,7.50
2015,09,28,00,49,7.50
2015,09,28,00,50,7.50
2015,09,28,00,51,7.40
2015,09,28,00,52,7.40
2015,09,28,00,53,7.40
2015,09,28,00,54,7.40
2015,09,28,00,55,7.40
2015,09,28,00,56,7.40
2015,09,28,00,57,7.40
2015,09,28,00,58,7.40
2015,09,28,00,59,7.40
2015,09,28,01,00,7.40
2015,09,28,01,01,7.40
2015,09,28,01,02,7.50
2015,09,28,01,03,7.50
2015,09,28,01,04,7.60
2015,09,28,01,05,7.60
2015,09,28,01,06,7.60
2015,09,28,01,07,7.60
2015,09,28,01,08,7.70
2015,09,28,01,09,7.70
2015,09,28,01,10,7.70
2015,09,28,01,11,7.70
2015,09,28,01,12,7.70
2015,09,28,01,13,7.70
2015,09,28,01,14,7.80
2015,09,28,01,15,7.80
2015,09,28,01,16,7.80
2015,09,28,01,17,7.80
2015,09,28,01,18,7.80
2015,09,28,01,19,7.80
2015,09,28,01,20,7.80
2015,09,28,01,21,7.90
2015,09,28,01,22,7.90
2015,09,28,01,23,7.90
2015,09,28,01,24,7.90
2015,09,28,01,25,8.00
2015,09,28,01,26,8.00
2015,09,28,01,27,8.00
2015,09,28,01,28,8.10
2015,09,28,01,29,8.10
2015,09,28,01,30,8.10
2015,09,28,01,31,8.10
2015,09,28,01,32,8.10
2015,09,28,01,33,8.10
2015,09,28,01,34,8.10
2015,09,28,01,35,8.10
2015,09,28,01,36,8.10
2015,09,28,01,37,8.10
2015,09,28,01,38,8.10
2015,09,28,01,39,8.10
2015,09,28,01,40,8.10
2015,09,28,01,41,8.10
2015,09,28,01,42,8.20
2015,09,28,01,43,8.20
2015,09,28,01,44,8.10
2015,09,28,01,45,8.10
2015,09,28,01,46,8.10
2015,09,28,01,47,8.10
2015,09,28,01,48,8.10
2015,09,28,01,49,8.10
2015,09,28,01,50,8.10
2015,09,28,01,51,8.10
2015,09,28,01,52,8.10
2015,09,28,01,53,8.10
2015,09,28,01,54,8.10
2015,09,28,01,55,8.10
2015,09,28,01,56,8.10
2015,09,28,01,57,8.10
2015,09,28,01,58,8.10
2015,09,28,01,59,8.10
2015,09,28,02,00,8.10
2015,09,28,02,01,8.20
2015,09,28,02,02,8.20
2015,09,28,02,03,8.20
2015,09,28,02,04,8.20
2015,09,28,02,05,8.30
2015,09,28,02,06,8.30
2015,09,28,02,07,8.30
2015,09,28,02,08,8.40
2015,09,28,02,09,8.50
2015,09,28,02,10,8.50
2015,09,28,02,11,8.60
2015,09,28,02,12,8.60
2015,09,28,02,13,8.60
2015,09,28,02,14,8.50
2015,09,28,02,15,8.50
2015,09,28,02,16,8.50
2015,09,28,02,17,8.40
2015,09,28,02,18,8.40
2015,09,28,02,19,8.40
2015,09,28,02,20,8.40
2015,09,28,02,21,8.40
2015,09,28,02,22,8.50
2015,09,28,02,23,8.60
2015,09,28,02,24,8.80
2015,09,28,02,25,9.00
2015,09,28,02,26,9.20
2015,09,28,02,27,9.40
2015,09,28,02,28,9.50
2015,09,28,02,29,9.60
2015,09,28,02,30,9.70
2015,09,28,02,31,9.80
2015,09,28,02,32,10.00
2015,09,28,02,33,10.10
2015,09,28,02,34,10.20
2015,09,28,02,35,10.20
2015,09,28,02,36,10.20
2015,09,28,02,37,10.30
2015,09,28,02,38,10.50
2015,09,28,02,39,10.60
2015,09,28,02,40,10.80
2015,09,28,02,41,10.90
2015,09,28,02,42,11.10
2015,09,28,02,43,11.20
2015,09,28,02,44,11.30
2015,09,28,02,45,11.50
2015,09,28,02,46,11.60
2015,09,28,02,47,11.60
2015,09,28,02,48,11.70
2015,09,28,02,49,11.80
2015,09,28,02,50,11.80
2015,09,28,02,51,11.80
2015,09,28,02,52,11.90
2015,09,28,02,53,11.90
2015,09,28,02,54,11.90
2015,09,28,02,55,11.90
2015,09,28,02,56,11.90
2015,09,28,02,57,11.90
2015,09,28,02,58,12.00
2015,09,28,02,59,12.00
2015,09,28,03,00,12.00
2015,09,28,03,01,12.00
2015,09,28,03,02,12.00
2015,09,28,03,03,12.10
2015,09,28,03,04,12.10
2015,09,28,03,05,12.10
2015,09,28,03,06,12.10
2015,09,28,03,07,12.10
2015,09,28,03,08,12.10
2015,09,28,03,09,12.00
2015,09,28,03,10,12.00
2015,09,28,03,11,12.00
2015,09,28,03,12,11.90
2015,09,28,03,13,11.90
2015,09,28,03,14,11.90
2015,09,28,03,15,11.80
2015,09,28,03,16,11.80
2015,09,28,03,17,11.80
2015,09,28,03,18,11.80
2015,09,28,03,19,11.80
2015,09,28,03,20,11.80
2015,09,28,03,21,11.80
2015,09,28,03,22,11.80
2015,09,28,03,23,11.80
2015,09,28,03,24,11.80
2015,09,28,03,25,11.80
2015,09,28,03,26,11.80
2015,09,28,03,27,11.90
2015,09,28,03,28,11.90
2015,09,28,03,29,11.90
2015,09,28,03,30,11.90
2015,09,28,03,31,11.90
2015,09,28,03,32,11.90
2015,09,28,03,33,11.90
2015,09,28,03,34,11.90
2015,09,28,03,35,12.00
2015,09,28,03,36,12.00
2015,09,28,03,37,12.00
2015,09,28,03,38,12.10
2015,09,28,03,39,12.10
2015,09,28,03,40,12.20
2015,09,28,03,41,12.20
2015,09,28,03,42,12.20
2015,09,28,03,43,12.30
2015,09,28,03,44,12.30
2015,09,28,03,45,12.30
2015,09,28,03,46,12.30
2015,09,28,03,47,12.30
2015,09,28,03,48,12.30
2015,09,28,03,49,12.30
2015,09,28,03,50,12.30
2015,09,28,03,51,12.30
2015,09,28,03,52,12.30
2015,09,28,03,53,12.30
2015,09,28,03,54,12.30
2015,09,28,03,55,12.30
2015,09,28,03,56,12.30
2015,09,28,03,57,12.30
2015,09,28,03,58,12.30
2015,09,28,03,59,12.30
2015,09,28,04,00,12.30
2015,09,28,04,01,12.30
2015,09,28,04,02,12.30
2015,09,28,04,03,12.30
2015,09,28,04,04,12.20
2015,09,28,04,05,12.20
2015,09,28,04,06,12.20
2015,09,28,04,07,12.20
2015,09,28,04,08,12.20
2015,09,28,04,09,12.20
2015,09,28,04,10,12.20
2015,09,28,04,11,12.20
2015,09,28,04,12,12.20
2015,09,28,04,13,12.20
2015,09,28,04,14,12.30
2015,09,28,04,15,12.30
2015,09,28,04,16,12.30
2015,09,28,04,17,12.30
2015,09,28,04,18,12.30
2015,09,28,04,19,12.30
2015,09,28,04,20,12.30
2015,09,28,04,21,12.20
2015,09,28,04,22,12.20
2015,09,28,04,23,12.20
2015,09,28,04,24,12.20
2015,09,28,04,25,12.10
2015,09,28,04,26,12.10
2015,09,28,04,27,12.10
2015,09,28,04,28,12.10
2015,09,28,04,29,12.00
2015,09,28,04,30,12.00
2015,09,28,04,31,11.90
2015,09,28,04,32,11.90
2015,09,28,04,33,11.90
2015,09,28,04,34,11.80
2015,09,28,04,35,11.80
2015,09,28,04,36,11.80
2015,09,28,04,37,11.80
2015,09,28,04,38,11.70
2015,09,28,04,39,11.70
2015,09,28,04,40,11.70
2015,09,28,04,41,11.70
2015,09,28,04,42,11.60
2015,09,28,04,43,11.60
2015,09,28,04,44,11.60
2015,09,28,04,45,11.60
2015,09,28,04,46,11.60
2015,09,28,04,47,11.50
2015,09,28,04,48,11.50
2015,09,28,04,49,11.40
2015,09,28,04,50,11.40
2015,09,28,04,51,11.40
2015,09,28,04,52,11.30
2015,09,28,04,53,11.30
2015,09,28,04,54,11.30
2015,09,28,04,55,11.30
2015,09,28,04,56,11.30
2015,09,28,04,57,11.30
2015,09,28,04,58,11.20
2015,09,28,04,59,11.20
2015,09,28,05,00,11.20
2015,09,28,05,01,11.20
2015,09,28,05,02,11.10
2015,09,28,05,03,11.10
2015,09,28,05,04,11.10
2015,09,28,05,05,11.00
2015,09,28,05,06,10.90
2015,09,28,05,07,10.90
2015,09,28,05,08,10.90
2015,09,28,05,09,10.90
2015,09,28,05,10,10.90
2015,09,28,05,11,10.80
2015,09,28,05,12,10.80
2015,09,28,05,13,10.80
2015,09,28,05,14,10.80
2015,09,28,05,15,10.80
2015,09,28,05,16,10.70
2015,09,28,05,17,10.70
2015,09,28,05,18,10.70
2015,09,28,05,19,10.70
2015,09,28,05,20,10.60
2015,09,28,05,21,10.60
2015,09,28,05,22,10.60
2015,09,28,05,23,10.50
2015,09,28,05,24,10.50
2015,09,28,05,25,10.50
2015,09,28,05,26,10.60
2015,09,28,05,27,10.60
2015,09,28,05,28,10.60
2015,09,28,05,29,10.60
2015,09,28,05,30,10.60
2015,09,28,05,31,10.60
2015,09,28,05,32,10.70
2015,09,28,05,33,10.70
2015,09,28,05,34,10.70
2015,09,28,05,35,10.70
2015,09,28,05,36,10.70
2015,09,28,05,37,10.70
2015,09,28,05,38,10.70
2015,09,28,05,39,10.70
2015,09,28,05,40,10.70
2015,09,28,05,41,10.70
2015,09,28,05,42,10.70
2015,09,28,05,43,10.70
2015,09,28,05,44,10.70
2015,09,28,05,45,10.70
2015,09,28,05,46,10.80
2015,09,28,05,47,10.80
2015,09,28,05,48,10.80
2015,09,28,05,49,10.80
2015,09,28,05,50,10.80
2015,09,28,05,51,10.80
2015,09,28,05,52,10.80
2015,09,28,05,53,10.80
2015,09,28,05,54,10.80
2015,09,28,05,55,10.80
2015,09,28,05,56,10.90
2015,09,28,05,57,10.90
2015,09,28,05,58,10.90
2015,09,28,05,59,10.90
2015,09,28,06,00,11.00
2015,09,28,06,01,11.00
2015,09,28,06,02,11.10
2015,09,28,06,03,11.10
2015,09,28,06,04,11.10
2015,09,28,06,05,11.10
2015,09,28,06,06,11.20
2015,09,28,06,07,11.20
2015,09,28,06,08,11.20
2015,09,28,06,09,11.20
2015,09,28,06,10,11.20
2015,09,28,06,11,11.20
2015,09,28,06,12,11.20
2015,09,28,06,13,11.20
2015,09,28,06,14,11.20
2015,09,28,06,15,11.20
2015,09,28,06,16,11.20
2015,09,28,06,17,11.20
2015,09,28,06,18,11.20
2015,09,28,06,19,11.20
2015,09,28,06,20,11.10
2015,09,28,06,21,11.10
2015,09,28,06,22,11.10
2015,09,28,06,23,11.10
2015,09,28,06,24,11.10
2015,09,28,06,25,11.00
2015,09,28,06,26,11.00
2015,09,28,06,27,11.00
2015,09,28,06,28,11.00
2015,09,28,06,29,11.00
2015,09,28,06,30,11.00
2015,09,28,06,31,11.00
2015,09,28,06,32,11.00
2015,09,28,06,33,11.00
2015,09,28,06,34,11.00
2015,09,28,06,35,10.90
2015,09,28,06,36,11.00
2015,09,28,06,37,11.00
2015,09,28,06,38,11.00
2015,09,28,06,39,11.00
2015,09,28,06,40,11.00
2015,09,28,06,41,11.00
2015,09,28,06,42,11.00
2015,09,28,06,43,10.90
2015,09,28,06,44,10.90
2015,09,28,06,45,10.90
2015,09,28,06,46,10.90
2015,09,28,06,47,10.90
2015,09,28,06,48,10.90
2015,09,28,06,49,10.80
2015,09,28,06,50,10.80
2015,09,28,06,51,10.80
2015,09,28,06,52,10.70
2015,09,28,06,53,10.70
2015,09,28,06,54,10.70
2015,09,28,06,55,10.70
2015,09,28,06,56,10.60
2015,09,28,06,57,10.60
2015,09,28,06,58,10.60
2015,09,28,06,59,10.60
2015,09,28,07,00,10.50
2015,09,28,07,01,10.50
2015,09,28,07,02,10.50
2015,09,28,07,03,10.40
2015,09,28,07,04,10.40
2015,09,28,07,05,10.40
2015,09,28,07,06,10.30
2015,09,28,07,07,10.30
2015,09,28,07,08,10.30
2015,09,28,07,09,10.30
2015,09,28,07,10,10.30
2015,09,28,07,11,10.30
2015,09,28,07,12,10.30
2015,09,28,07,13,10.30
2015,09,28,07,14,10.30
2015,09,28,07,15,10.20
2015,09,28,07,16,10.20
2015,09,28,07,17,10.20
2015,09,28,07,18,10.10
2015,09,28,07,19,10.00
2015,09,28,07,20,10.00
2015,09,28,07,21,10.10
2015,09,28,07,22,10.10
2015,09,28,07,23,10.10
2015,09,28,07,24,10.10
2015,09,28,07,25,10.10
2015,09,28,07,26,10.00
2015,09,28,07,27,10.00
2015,09,28,07,28,9.90
2015,09,28,07,29,9.90
2015,09,28,07,30,9.80
2015,09,28,07,31,9.80
2015,09,28,07,32,9.80
2015,09,28,07,33,9.70
2015,09,28,07,34,9.70
2015,09,28,07,35,9.70
2015,09,28,07,36,9.60
2015,09,28,07,37,9.60
2015,09,28,07,38,9.60
2015,09,28,07,39,9.60
2015,09,28,07,40,9.60
2015,09,28,07,41,9.70
2015,09,28,07,42,9.70
2015,09,28,07,43,9.70
2015,09,28,07,44,9.70
2015,09,28,07,45,9.80
2015,09,28,07,46,9.80
2015,09,28,07,47,9.90
2015,09,28,07,48,10.00
2015,09,28,07,49,10.00
2015,09,28,07,50,10.10
2015,09,28,07,51,10.10
2015,09,28,07,52,10.00
2015,09,28,07,53,10.00
2015,09,28,07,54,10.00
2015,09,28,07,55,10.00
2015,09,28,07,56,10.00
2015,09,28,07,57,10.00
2015,09,28,07,58,10.00
2015,09,28,07,59,10.10
2015,09,28,08,00,10.10
2015,09,28,08,01,10.20
2015,09,28,08,02,10.20
2015,09,28,08,03,10.20
2015,09,28,08,04,10.30
2015,09,28,08,05,10.40
2015,09,28,08,06,10.50
2015,09,28,08,07,10.60
2015,09,28,08,08,10.70
2015,09,28,08,09,10.80
2015,09,28,08,10,10.90
2015,09,28,08,11,11.10
2015,09,28,08,12,11.20
2015,09,28,08,13,11.30
2015,09,28,08,14,11.40
2015,09,28,08,15,11.50
2015,09,28,08,16,11.60
2015,09,28,08,17,11.60
2015,09,28,08,18,11.70
2015,09,28,08,19,11.70
2015,09,28,08,20,11.80
2015,09,28,08,21,11.80
2015,09,28,08,22,11.90
2015,09,28,08,23,12.00
2015,09,28,08,24,12.00
2015,09,28,08,25,12.10
2015,09,28,08,26,12.10
2015,09,28,08,27,12.20
2015,09,28,08,28,12.20
2015,09,28,08,29,12.30
2015,09,28,08,30,12.30
2015,09,28,08,31,12.40
2015,09,28,08,32,12.40
2015,09,28,08,33,12.50
2015,09,28,08,34,12.50
2015,09,28,08,35,12.60
2015,09,28,08,36,12.60
2015,09,28,08,37,12.60
2015,09,28,08,38,12.70
2015,09,28,08,39,12.70
2015,09,28,08,40,12.70
2015,09,28,08,41,12.80
2015,09,28,08,42,12.80
2015,09,28,08,43,12.80
2015,09,28,08,44,12.80
2015,09,28,08,45,12.90
2015,09,28,08,46,12.90
2015,09,28,08,47,12.90
2015,09,28,08,48,13.00
2015,09,28,08,49,13.00
2015,09,28,08,50,13.10
2015,09,28,08,51,13.10
2015,09,28,08,52,13.10
2015,09,28,08,53,13.10
2015,09,28,08,54,13.10
2015,09,28,08,55,13.20
2015,09,28,08,56,13.20
2015,09,28,08,57,13.20
2015,09,28,08,58,13.20
2015,09,28,08,59,13.30
2015,09,28,09,00,13.30
2015,09,28,09,01,13.30
2015,09,28,09,02,13.40
2015,09,28,09,03,13.40
2015,09,28,09,04,13.40
2015,09,28,09,05,13.40
2015,09,28,09,06,13.50
2015,09,28,09,07,13.60
2015,09,28,09,08,13.60
2015,09,28,09,09,13.60
2015,09,28,09,10,13.60
2015,09,28,09,11,13.60
2015,09,28,09,12,13.70
2015,09,28,09,13,13.70
2015,09,28,09,14,13.70
2015,09,28,09,15,13.80
2015,09,28,09,16,13.80
2015,09,28,09,17,13.80
2015,09,28,09,18,13.80
2015,09,28,09,19,13.90
2015,09,28,09,20,14.00
2015,09,28,09,21,14.00
2015,09,28,09,22,14.00
2015,09,28,09,23,14.00
2015,09,28,09,24,14.10
2015,09,28,09,25,14.10
2015,09,28,09,26,14.10
2015,09,28,09,27,14.10
2015,09,28,09,28,14.10
2015,09,28,09,29,14.10
2015,09,28,09,30,14.20
2015,09,28,09,31,14.20
2015,09,28,09,32,14.20
2015,09,28,09,33,14.20
2015,09,28,09,34,14.30
2015,09,28,09,35,14.30
2015,09,28,09,36,14.30
2015,09,28,09,37,14.30
2015,09,28,09,38,14.30
2015,09,28,09,39,14.40
2015,09,28,09,40,14.40
2015,09,28,09,41,14.50
2015,09,28,09,42,14.50
2015,09,28,09,43,14.60
2015,09,28,09,44,14.60
2015,09,28,09,45,14.60
2015,09,28,09,46,14.60
2015,09,28,09,47,14.70
2015,09,28,09,48,14.70
2015,09,28,09,49,14.80
2015,09,28,09,50,14.80
2015,09,28,09,51,14.90
2015,09,28,09,52,14.90
2015,09,28,09,53,15.00
2015,09,28,09,54,15.00
2015,09,28,09,55,15.00
2015,09,28,09,56,15.00
2015,09,28,09,57,15.00
2015,09,28,09,58,15.00
2015,09,28,09,59,15.00
2015,09,28,10,00,15.00
2015,09,28,10,01,15.10
2015,09,28,10,02,15.20
2015,09,28,10,03,15.30
2015,09,28,10,04,15.30
2015,09,28,10,05,15.40
2015,09,28,10,06,15.40
2015,09,28,10,07,15.40
2015,09,28,10,08,15.40
2015,09,28,10,09,15.50
2015,09,28,10,10,15.50
2015,09,28,10,11,15.60
2015,09,28,10,12,15.70
2015,09,28,10,13,15.70
2015,09,28,10,14,15.70
2015,09,28,10,15,15.80
2015,09,28,10,16,15.70
2015,09,28,10,17,15.60
2015,09,28,10,18,15.60
2015,09,28,10,19,15.50
2015,09,28,10,20,15.50
2015,09,28,10,21,15.40
2015,09,28,10,22,15.40
2015,09,28,10,23,15.40
2015,09,28,10,24,15.40
2015,09,28,10,25,15.50
2015,09,28,10,26,15.50
2015,09,28,10,27,15.50
2015,09,28,10,28,15.50
2015,09,28,10,29,15.60
2015,09,28,10,30,15.60
2015,09,28,10,31,15.70
2015,09,28,10,32,15.70
2015,09,28,10,33,15.70
2015,09,28,10,34,15.80
2015,09,28,10,35,15.90
2015,09,28,10,36,15.90
2015,09,28,10,37,16.00
2015,09,28,10,38,16.10
2015,09,28,10,39,16.10
2015,09,28,10,40,16.20
2015,09,28,10,41,16.30
2015,09,28,10,42,16.40
2015,09,28,10,43,16.40
2015,09,28,10,44,16.50
2015,09,28,10,45,16.50
2015,09,28,10,46,16.40
2015,09,28,10,47,16.30
2015,09,28,10,48,16.30
2015,09,28,10,49,16.30
2015,09,28,10,50,16.40
2015,09,28,10,51,16.50
2015,09,28,10,52,16.50
2015,09,28,10,53,16.60
2015,09,28,10,54,16.70
2015,09,28,10,55,16.70
2015,09,28,10,56,16.70
2015,09,28,10,57,16.80
2015,09,28,10,58,16.90
2015,09,28,10,59,17.00
2015,09,28,11,00,17.10
2015,09,28,11,01,17.10
2015,09,28,11,02,17.10
2015,09,28,11,03,17.10
2015,09,28,11,04,17.20
2015,09,28,11,05,17.20
2015,09,28,11,06,17.20
2015,09,28,11,07,17.20
2015,09,28,11,08,17.20
2015,09,28,11,09,17.30
2015,09,28,11,10,17.30
2015,09,28,11,11,17.30
2015,09,28,11,12,17.30
2015,09,28,11,13,17.40
2015,09,28,11,14,17.40
2015,09,28,11,15,17.50
2015,09,28,11,16,17.50
2015,09,28,11,17,17.60
2015,09,28,11,18,17.60
2015,09,28,11,19,17.60
2015,09,28,11,20,17.60
2015,09,28,11,21,17.60
2015,09,28,11,22,17.60
2015,09,28,11,23,17.60
2015,09,28,11,24,17.60
2015,09,28,11,25,17.60
2015,09,28,11,26,17.60
2015,09,28,11,27,17.60
2015,09,28,11,28,17.60
2015,09,28,11,29,17.70
2015,09,28,11,30,17.90
2015,09,28,11,31,17.90
2015,09,28,11,32,18.00
2015,09,28,11,33,18.00
2015,09,28,11,34,18.00
2015,09,28,11,35,18.10
2015,09,28,11,36,18.20
2015,09,28,11,37,18.30
2015,09,28,11,38,18.30
2015,09,28,11,39,18.30
2015,09,28,11,40,18.30
2015,09,28,11,41,18.40
2015,09,28,11,42,18.40
2015,09,28,11,43,18.40
2015,09,28,11,44,18.40
2015,09,28,11,45,18.50
2015,09,28,11,46,18.50
2015,09,28,11,47,18.60
2015,09,28,11,48,18.60
2015,09,28,11,49,18.70
2015,09,28,11,50,18.80
2015,09,28,11,51,18.90
2015,09,28,11,52,18.90
2015,09,28,11,53,19.00
2015,09,28,11,54,19.10
2015,09,28,11,55,19.10
2015,09,28,11,56,19.20
2015,09,28,11,57,19.20
2015,09,28,11,58,19.20
2015,09,28,11,59,19.20
2015,09,28,12,00,19.10
2015,09,28,12,01,19.10
2015,09,28,12,02,19.10
2015,09,28,12,03,19.00
2015,09,28,12,04,19.00
2015,09,28,12,05,19.10
2015,09,28,12,06,19.00
2015,09,28,12,07,18.90
2015,09,28,12,08,19.00
2015,09,28,12,09,19.00
2015,09,28,12,10,19.10
2015,09,28,12,11,19.10
2015,09,28,12,12,19.10
2015,09,28,12,13,19.20
2015,09,28,12,14,19.20
2015,09,28,12,15,19.20
2015,09,28,12,16,19.30
2015,09,28,12,17,19.40
2015,09,28,12,18,19.40
2015,09,28,12,19,19.30
2015,09,28,12,20,19.30
2015,09,28,12,21,19.20
2015,09,28,12,22,19.20
2015,09,28,12,23,19.20
2015,09,28,12,24,19.10
2015,09,28,12,25,19.10
2015,09,28,12,26,19.00
2015,09,28,12,27,18.90
2015,09,28,12,28,18.80
2015,09,28,12,29,18.80
2015,09,28,12,30,18.80
2015,09,28,12,31,18.90
2015,09,28,12,32,19.00
2015,09,28,12,33,19.10
2015,09,28,12,34,19.20
2015,09,28,12,35,19.30
2015,09,28,12,36,19.40
2015,09,28,12,37,19.60
2015,09,28,12,38,19.70
2015,09,28,12,39,19.80
2015,09,28,12,40,19.90
2015,09,28,12,41,20.00
2015,09,28,12,42,20.00
2015,09,28,12,43,20.00
2015,09,28,12,44,19.90
2015,09,28,12,45,19.80
2015,09,28,12,46,19.70
2015,09,28,12,47,19.60
2015,09,28,12,48,19.60
2015,09,28,12,49,19.50
2015,09,28,12,50,19.60
2015,09,28,12,51,19.60
2015,09,28,12,52,19.70
2015,09,28,12,53,19.80
2015,09,28,12,54,19.90
2015,09,28,12,55,19.90
2015,09,28,12,56,19.90
2015,09,28,12,57,20.00
2015,09,28,12,58,19.90
2015,09,28,12,59,20.00
2015,09,28,13,00,20.00
2015,09,28,13,01,20.00
2015,09,28,13,02,19.90
2015,09,28,13,03,19.90
2015,09,28,13,04,19.90
2015,09,28,13,05,19.80
2015,09,28,13,06,19.80
2015,09,28,13,07,19.80
2015,09,28,13,08,19.80
2015,09,28,13,09,19.70
2015,09,28,13,10,19.70
2015,09,28,13,11,19.70
2015,09,28,13,12,19.60
2015,09,28,13,13,19.60
2015,09,28,13,14,19.70
2015,09,28,13,15,19.80
2015,09,28,13,16,19.80
2015,09,28,13,17,19.80
2015,09,28,13,18,19.90
2015,09,28,13,19,19.90
2015,09,28,13,20,19.90
2015,09,28,13,21,19.90
2015,09,28,13,22,19.90
2015,09,28,13,23,19.80
2015,09,28,13,24,19.90
2015,09,28,13,25,20.00
2015,09,28,13,26,20.00
2015,09,28,13,27,20.10
2015,09,28,13,28,20.10
2015,09,28,13,29,20.10
2015,09,28,13,30,20.10
2015,09,28,13,31,20.10
2015,09,28,13,32,20.10
2015,09,28,13,33,20.00
2015,09,28,13,34,20.00
2015,09,28,13,35,20.00
2015,09,28,13,36,20.00
2015,09,28,13,37,19.90
2015,09,28,13,38,20.00
2015,09,28,13,39,20.00
2015,09,28,13,40,20.00
2015,09,28,13,41,20.00
2015,09,28,13,42,20.00
2015,09,28,13,43,20.10
2015,09,28,13,44,20.10
2015,09,28,13,45,20.20
2015,09,28,13,46,20.30
2015,09,28,13,47,20.40
2015,09,28,13,48,20.40
2015,09,28,13,49,20.50
2015,09,28,13,50,20.60
2015,09,28,13,51,20.70
2015,09,28,13,52,20.80
2015,09,28,13,53,20.90
2015,09,28,13,54,21.00
2015,09,28,13,55,21.10
2015,09,28,13,56,21.20
2015,09,28,13,57,21.20
2015,09,28,13,58,21.30
2015,09,28,13,59,21.30
2015,09,28,14,00,21.30
2015,09,28,14,01,21.30
2015,09,28,14,02,21.40
2015,09,28,14,03,21.50
2015,09,28,14,04,21.60
2015,09,28,14,05,21.60
2015,09,28,14,06,21.70
2015,09,28,14,07,21.70
2015,09,28,14,08,21.50
2015,09,28,14,09,21.30
2015,09,28,14,10,21.20
2015,09,28,14,11,21.10
2015,09,28,14,12,21.00
2015,09,28,14,13,20.90
2015,09,28,14,14,20.90
2015,09,28,14,15,20.90
2015,09,28,14,16,20.90
2015,09,28,14,17,20.90
2015,09,28,14,18,21.00
2015,09,28,14,19,21.10
2015,09,28,14,20,21.10
2015,09,28,14,21,21.20
2015,09,28,14,22,21.30
2015,09,28,14,23,21.40
2015,09,28,14,24,21.40
2015,09,28,14,25,21.50
2015,09,28,14,26,21.60
2015,09,28,14,27,21.60
2015,09,28,14,28,21.60
2015,09,28,14,29,21.60
2015,09,28,14,30,21.50
2015,09,28,14,31,21.50
2015,09,28,14,32,21.50
2015,09,28,14,33,21.50
2015,09,28,14,34,21.60
2015,09,28,14,35,21.60
2015,09,28,14,36,21.70
2015,09,28,14,37,21.80
2015,09,28,14,38,21.80
2015,09,28,14,39,21.70
2015,09,28,14,40,21.60
2015,09,28,14,41,21.50
2015,09,28,14,42,21.40
2015,09,28,14,43,21.40
2015,09,28,14,44,21.30
2015,09,28,14,45,21.20
2015,09,28,14,46,21.20
2015,09,28,14,47,21.20
2015,09,28,14,48,21.20
2015,09,28,14,49,21.30
2015,09,28,14,50,21.20
2015,09,28,14,51,21.20
2015,09,28,14,52,21.10
2015,09,28,14,53,21.10
2015,09,28,14,54,21.20
2015,09,28,14,55,21.20
2015,09,28,14,56,21.30
2015,09,28,14,57,21.40
2015,09,28,14,58,21.50
2015,09,28,14,59,21.60
2015,09,28,15,00,21.50
2015,09,28,15,01,21.50
2015,09,28,15,02,21.50
2015,09,28,15,03,21.60
2015,09,28,15,04,21.60
2015,09,28,15,05,21.60
2015,09,28,15,06,21.60
2015,09,28,15,07,21.60
2015,09,28,15,08,21.60
2015,09,28,15,09,21.60
2015,09,28,15,10,21.60
2015,09,28,15,11,21.60
2015,09,28,15,12,21.60
2015,09,28,15,13,21.60
2015,09,28,15,14,21.60
2015,09,28,15,15,21.60
2015,09,28,15,16,21.60
2015,09,28,15,17,21.60
2015,09,28,15,18,21.60
2015,09,28,15,19,21.60
2015,09,28,15,20,21.60
2015,09,28,15,21,21.60
2015,09,28,15,22,21.70
2015,09,28,15,23,21.80
2015,09,28,15,24,21.80
2015,09,28,15,25,21.80
2015,09,28,15,26,21.80
2015,09,28,15,27,21.80
2015,09,28,15,28,21.80
2015,09,28,15,29,21.80
2015,09,28,15,30,21.70
2015,09,28,15,31,21.70
2015,09,28,15,32,21.60
2015,09,28,15,33,21.60
2015,09,28,15,34,21.50
2015,09,28,15,35,21.50
2015,09,28,15,36,21.50
2015,09,28,15,37,21.40
2015,09,28,15,38,21.30
2015,09,28,15,39,21.20
2015,09,28,15,40,21.20
2015,09,28,15,41,21.20
2015,09,28,15,42,21.20
2015,09,28,15,43,21.30
2015,09,28,15,44,21.40
2015,09,28,15,45,21.40
2015,09,28,15,46,21.20
2015,09,28,15,47,21.10
2015,09,28,15,48,21.00
2015,09,28,15,49,21.00
2015,09,28,15,50,21.10
2015,09,28,15,51,21.10
2015,09,28,15,52,21.20
2015,09,28,15,53,21.30
2015,09,28,15,54,21.30
2015,09,28,15,55,21.30
2015,09,28,15,56,21.40
2015,09,28,15,57,21.50
2015,09,28,15,58,21.60
2015,09,28,15,59,21.60
2015,09,28,16,00,21.70
2015,09,28,16,01,21.60
2015,09,28,16,02,21.60
2015,09,28,16,03,21.70
2015,09,28,16,04,21.60
2015,09,28,16,05,21.70
2015,09,28,16,06,21.70
2015,09,28,16,07,21.70
2015,09,28,16,08,21.50
2015,09,28,16,09,21.20
2015,09,28,16,10,20.80
2015,09,28,16,11,20.50
2015,09,28,16,12,20.10
2015,09,28,16,13,19.90
2015,09,28,16,14,19.70
2015,09,28,16,15,19.50
2015,09,28,16,16,19.40
2015,09,28,16,17,19.30
2015,09,28,16,18,19.20
2015,09,28,16,19,19.20
2015,09,28,16,20,19.20
2015,09,28,16,21,19.20
2015,09,28,16,22,19.10
2015,09,28,16,23,19.10
2015,09,28,16,24,19.10
2015,09,28,16,25,19.10
2015,09,28,16,26,19.20
2015,09,28,16,27,19.20
2015,09,28,16,28,19.30
2015,09,28,16,29,19.30
2015,09,28,16,30,19.30
2015,09,28,16,31,19.30
2015,09,28,16,32,19.30
2015,09,28,16,33,19.30
2015,09,28,16,34,19.30
2015,09,28,16,35,19.40
2015,09,28,16,36,19.40
2015,09,28,16,37,19.40
2015,09,28,16,38,19.40
2015,09,28,16,39,19.30
2015,09,28,16,40,19.20
2015,09,28,16,41,19.20
2015,09,28,16,42,19.10
2015,09,28,16,43,19.10
2015,09,28,16,44,19.00
2015,09,28,16,45,19.00
2015,09,28,16,46,19.00
2015,09,28,16,47,19.00
2015,09,28,16,48,19.00
2015,09,28,16,49,19.00
2015,09,28,16,50,19.00
2015,09,28,16,51,19.00
2015,09,28,16,52,19.10
2015,09,28,16,53,19.10
2015,09,28,16,54,19.10
2015,09,28,16,55,19.10
2015,09,28,16,56,19.20
2015,09,28,16,57,19.30
2015,09,28,16,58,19.30
2015,09,28,16,59,19.30
2015,09,28,17,00,19.30
2015,09,28,17,01,19.40
2015,09,28,17,02,19.40
2015,09,28,17,03,19.40
2015,09,28,17,04,19.40
2015,09,28,17,05,19.40
2015,09,28,17,06,19.40
2015,09,28,17,07,19.30
2015,09,28,17,08,19.30
2015,09,28,17,09,19.30
2015,09,28,17,10,19.40
2015,09,28,17,11,19.40
2015,09,28,17,12,19.40
2015,09,28,17,13,19.40
2015,09,28,17,14,19.50
2015,09,28,17,15,19.50
2015,09,28,17,16,19.60
2015,09,28,17,17,19.70
2015,09,28,17,18,19.80
2015,09,28,17,19,19.90
2015,09,28,17,20,20.00
2015,09,28,17,21,20.20
2015,09,28,17,22,20.30
2015,09,28,17,23,20.30
2015,09,28,17,24,20.40
2015,09,28,17,25,20.40
2015,09,28,17,26,20.50